Simultaneous Nadir Overpasses (SNOs) Predictions

Prediction of SNOs between METOP-B and TERRA Satellite Orbit:

Table of predicted SNOs for the next 14.0 days since TLE Epoch: 10/18/2025
Index Date (METOP-B) Time (METOP-B) Lat,Lon (METOP-B) SZA (METOP-B ) Date (TERRA) Time (TERRA) Lat,Lon (TERRA) SZA (TERRA ) Distance(km) Time Diff (sec)
1 10/20/2025 10:55:48 72.76, 0.52 83.53 10/20/2025 10:56:37 72.75, 0.45 83.51 2.65 49
2 10/20/2025 11:46:09 -73.85, 170.25 95.51 10/20/2025 11:45:36 -73.86, 170.32 95.50 2.39 33
3 10/22/2025 23:45:18 71.92, 166.55 83.70 10/22/2025 23:46:13 71.93, 166.61 83.68 2.21 55
4 10/23/2025 00:35:28 -73.57, -22.70 94.86 10/23/2025 00:35:02 -73.58, -22.65 94.85 1.64 26
5 10/25/2025 12:34:32 71.83, -25.92 84.49 10/25/2025 12:35:34 71.83, -25.94 84.47 1.08 62
6 10/25/2025 13:24:42 -73.48, 144.79 94.07 10/25/2025 13:24:23 -73.48, 144.75 94.07 1.42 19
7 10/28/2025 01:23:54 71.37, 140.95 84.95 10/28/2025 01:25:02 71.36, 140.93 84.93 0.92 68
8 10/28/2025 02:14:02 -73.14, -48.29 93.52 10/28/2025 02:13:49 -73.13, -48.31 93.52 0.85 13
9 10/30/2025 14:13:23 70.53, -52.76 85.07 10/30/2025 14:14:36 70.54, -52.70 85.05 2.61 73
10 10/30/2025 15:03:19 -72.93, 118.96 92.87 10/30/2025 15:03:12 -72.92, 118.89 92.87 2.56 7



Historial Predications of SNOs between METOP-B and TERRA
